Regional Weather Roundup
Issued by NWS Charleston, SC

Current Version | Previous Version | Graphics & Text | Print | Product List | Glossary On
Versions: 1 2 3 4 5 6 7 8 9 10 11 12 13 14 15 16 17 18 19 20 21 22 23 24 25 26 27 28 29 30 31 32 33 34 35 36 37 38 39 40 41 42 43 44 45 46 47 48 49 50
000
ASUS42 KCHS 281012
RWRCHS

REGIONAL WEATHER ROUNDUP
NATIONAL WEATHER SERVICE CHARLESTON SC
600 AM EDT WED JUN 28 2017

NOTE: "FAIR" INDICATES FEW OR NO CLOUDS BELOW 12,000 FEET WITH NO
SIGNIFICANT WEATHER AND/OR OBSTRUCTIONS TO VISIBILITY.

NOT ALL STATIONS ARE QUALITY CONTROLLED. USE DATA WITH CAUTION...
ESPECIALLY DEWPOINT OBSERVATIONS.

SCZ027-030-031-034>040-042>050-281100-
...SOUTHEAST SOUTH CAROLINA...

CITY           SKY/WX    TMP DP  RH WIND       PRES   REMARKS
N CHARLESTON   PTCLDY    70  66  87 NE7       30.09R
WATERFRONT PRK   N/A     75  70  84 N7        30.06R
JOHNS ISLAND     N/A     73  70  88 CALM      30.09R
PINOPOLIS        N/A     73  66  78 E15       30.02R
MONCKS CORNER  FAIR      68  63  83 NE7       30.10R
SUMMERVILLE    FAIR      68  66  94 CALM      30.10S
BEAUFORT MCAS  MOCLDY    73  71  93 N5        30.09R
BEAUFORT ARPT  FAIR      72  70  94 N5        30.08S
HILTON HEAD IS NOT AVBL
WALTERBORO     CLOUDY    68  64  88 CALM      30.11R
ALLENDALE      FAIR      70  68  94 CALM      30.09R

...SOUTHERN MIDLANDS AND PEE DEE...

CITY           SKY/WX    TMP DP  RH WIND       PRES   REMARKS
GEORGETOWN     FAIR      66  64  94 N3        30.11R
KINGSTREE      FAIR      63  59  88 CALM      30.11S
ORANGEBURG     CLEAR     67  62  84 NE6       30.11S
BARNWELL       FAIR      70  68  94 NE5       30.11R
AIKEN          FAIR      64  59  82 CALM      30.15S
MANNING        FAIR      63  63 100 NE8       30.11S
COLUMBIA       PTCLDY    71  58  63 CALM      30.12R
SUMTER         CLEAR     62  58  86 NE7       30.10S
FLORENCE       CLEAR     64  58  80 NE7       30.13R
MYRTLE BEACH   CLEAR     69  60  73 NE6       30.12R
N MYRTLE BEACH CLEAR     66  60  81 NE5       30.11R

$$

GAZ063-065-086>088-099>101-113>116-118-119-134>141-150-281100-
...SOUTHEAST GEORGIA...

CITY           SKY/WX    TMP DP  RH WIND       PRES   REMARKS
SAVANNAH ARPT  MOCLDY    71  69  93 N6        30.08R
HUNTER AAF     MOCLDY    72  69  91 CALM      30.05R
FORT STEWART   MOCLDY    70  68  93 CALM      30.06R
STATESBORO     PTCLDY    69  32  25 CALM      30.08S
SYLVANIA       MOSUNNY   69  69 100 CALM      30.10S FOG
CLAXTON        FAIR      67  67  99 CALM      30.08S FOG

...CSRA...CENTRAL AND FAR SOUTHEAST GEORGIA...

CITY           SKY/WX    TMP DP  RH WIND       PRES   REMARKS
THOMSON        CLEAR     63  61  94 CALM      30.15S
AUGUSTA-BUSH   PTCLDY    68  66  93 CALM      30.09R
AUGUSTA-DANIEL PTCLDY    72  64  76 E6        30.11R
SWAINSBORO     FAIR      68  68 100 CALM      30.10R
VIDALIA        CLOUDY    70  70 100 CALM      30.09R
EASTMAN        FAIR      68  68 100 CALM      30.10S FOG
HAZLEHURST     FAIR      70  70 100 CALM      30.07R
ALMA           CLOUDY    67  66  97 CALM      30.08R FOG
WAYCROSS       CLOUDY    71  71 100 CALM      30.07S
JESUP          FAIR      68  64  88 CALM      30.08R FOG
BAXLEY         FAIR      68  68 100 CALM      30.08R
BRUNSWICK      MOCLDY    70  70 100 CALM      30.07R
SAINT SIMONS   PTCLDY    73  71  93 N3        30.05S

$$

SCZ027-028-034-036>038-045-046-048>050-GAZ119-141-281100-
...LAKE AND SUPPLEMENTAL COASTAL OBSERVATIONS...

STATION/POSITION TIME  TEMP    WIND        PRES    WAVE   SWELL
                       AIR SEA DIR/SP/G            HT/PER HT/PER/DIR
                 (UTC) (F)     (DEG/KT/KT) (MB)    (FT/S) (FT/S/D)
WINYAH BAY       NOT AVBL
LAKE MURRAY      0920   71      60/  1/  3 1019.0R
ACE BASIN NERRS  NOT AVBL
FORT PULASKI     0942   75 83   20/  6/  9 1018.6R
SAPELO ISLAND    0900   75     360/  6     1018.0

$$

ANZ835-935-AMZ111-154-330-350-352-354-370-450-454-472-281100-
...C-MAN AND BUOY OBSERVATIONS...

STATION/POSITION TIME  TEMP    WIND        PRES    WAVE   SWELL
                       AIR SEA DIR/SP/G            HT/PER HT/PER/DIR
                 (UTC) (F)     (DEG/KT/KT) (MB)    (FT/S) (FT/S/D)
BUOY 41004       0950   79 81   20/ 12/ 14 1018.0R   2/ 8   2/150/ 8
BUOY 41008       0950   79 82   50/  8/ 10 1017.5R   1/ 7   2/150/ 7
FOLLY BEACH CMAN 0900   75     350/  7/  9 1019.0R
CAPERS NEARSHORE 0908   82 83   20/ 12/ 17 1018.3R
FRIPP NEARSHORE  0908   79 83   20/ 10/ 14 1017.9R


STATION/POSITION TIME  TEMP    WIND        PRES    WAVE   SWELL
                       AIR SEA DIR/SP/G            HT/PER HT/PER/DIR
                 (UTC) (F)     (DEG/KT/KT) (MB)    (FT/S) (FT/S/D)
5E ST. MARYS GA  0930      81                N/A     1/ 7
FRYING PAN BUOY  0950   79 81   40/ 17/ 21 1018.6R   2/ 3   2/140/ 6
BUOY 41025       0950   76 80   10/ 12/ 14 1018.9R   2/ 3   2/100/ 6
CAPE LOOKOUT NC  0900   75      10/  9/ 11 1018.9R
BUOY 41002       0950   79 80  290/  4/  4 1017.3S   3/ 6   3/170/ 6
BUOY 41010       0950   83 83  200/  8/ 10 1015.6R   2/ 7   2/140/ 7
ST AUGUSTINE FL  1000   78 78  360/ 13/ 14 1017.0R


$$




USA.gov is the U.S. government's official web portal to all federal, state and local government web resources and services.